Regional Weather Roundup
Issued by NWS

Home | Current Version | Previous Version | Text Only | Print | Product List | Glossary Off
Versions: 1 2 3 4 5 6 7 8 9 10 11 12 13 14 15 16 17 18 19 20 21 22 23 24 25 26 27 28 29 30 31 32 33 34 35 36 37 38 39 40 41 42 43 44 45 46 47 48 49 50

000
ASUS43 KLSX 231857
RWRMO

WEATHER SUMMARY FOR MISSOURI
NATIONAL WEATHER SERVICE SPRINGFIELD MO
200 PM CDT SAT SEP 23 2017

NOTE: "FAIR" INDICATES FEW OR NO CLOUDS BELOW 12,000 FEET WITH NO
       SIGNIFICANT WEATHER AND/OR OBSTRUCTIONS TO VISIBILITY.
       CURRENT SKY AND/OR WEATHER CONDITIONS ARE NOT AVAILABLE FOR
       CHILLICOTHE AND FARMINGTON.

MOZ001>031-035>038-043-044-053-054-232000-
...NORTHERN AND WESTERN MISSOURI...

CITY           SKY/WX    TMP DP  RH WIND       PRES   REMARKS
KANSAS CTY INT MOSUNNY   88  69  53 S12       30.00F HX  92
LEE`S SUMMIT   MOSUNNY   89  69  51 S10G16    30.02F HX  93
ST JOSEPH      SUNNY     92  68  45 S12G18    29.98F HX  96
CHILLICOTHE      N/A     89  70  53 SE3       30.01F HX  94

$$
MOZ066>068-077>081-088>096-101>105-232000-
...SOUTHWEST MISSOURI...

CITY           SKY/WX    TMP DP  RH WIND       PRES   REMARKS
SPRINGFIELD    MOSUNNY   90  63  40 SE6       30.03F HX  91
JOPLIN         MOSUNNY   89  66  46 VRB5      30.01F HX  91
BRANSON        MOSUNNY   91  61  35 SE9G17    30.04F HX  91

$$
MOZ032>034-039>042-045>050-055>058-069>072-232000-
...CENTRAL MISSOURI...

CITY           SKY/WX    TMP DP  RH WIND       PRES   REMARKS
COLUMBIA       NOT AVBL
JEFFERSON CITY SUNNY     89  65  44 CALM      30.01F HX  91
ROLLA          SUNNY     89  65  44 SE7       30.05F HX  91
SEDALIA        MOSUNNY   89  68  49 SE3       30.03F HX  93
WARRENSBURG    SUNNY     88  66  48 S6        30.02F HX  90

$$
MOZ051-052-059>065-232000-
...EAST CENTRAL MISSOURI...

CITY           SKY/WX    TMP DP  RH WIND       PRES   REMARKS
ST LOUIS INTL  MOSUNNY   90  64  42 SE6       30.04F HX  91

$$
MOZ072>076-082>087-097>100-106>115-232000-
...SOUTH CENTRAL AND SOUTHEAST MISSOURI...

CITY           SKY/WX    TMP DP  RH WIND       PRES   REMARKS
CAPE GIRARDEAU SUNNY     91  66  43 N7        30.01F HX  93
POPLAR BLUFF   SUNNY     91  65  41 VRB5      30.01F HX  93
WEST PLAINS    SUNNY     90  59  35 E8        30.06F

$$



USA.gov is the U.S. government's official web portal to all federal, state and local government web resources and services.